This is the latest recevied weather packets stored in our database for station/object K3FAZ. If no packets are shown the sender has not sent any weather packets the latest 1 day(s).
| Time | Temp. | Humidity | Pressure | Rain* | Wind** | Luminosity | Snow |
|---|---|---|---|---|---|---|---|
| 1778038647 | 16.67° C | 77% | 1010.7 hPa | 0 mm | 0.89 m/s, 51° | 0 W/m² | - |
| 1778038344 | 16.67° C | 77% | 1010.8 hPa | 0 mm | 0.45 m/s, 0° | 0 W/m² | - |
| 1778038041 | 16.67° C | 75% | 1010.7 hPa | 0 mm | 0.45 m/s, 15° | 0 W/m² | - |
| 1778037738 | 17.22° C | 74% | 1010.5 hPa | 0 mm | 0.89 m/s, 348° | 0 W/m² | - |
| 1778037434 | 17.78° C | 72% | 1010.5 hPa | 0 mm | 1.34 m/s, 347° | 0 W/m² | - |
| 1778037132 | 17.78° C | 68% | 1010.6 hPa | 0 mm | 0.45 m/s, 26° | 0 W/m² | - |
| 1778036830 | 18.33° C | 65% | 1010.7 hPa | 0 mm | 0 m/s | 0 W/m² | - |
| 1778036527 | 17.78° C | 64% | 1010.6 hPa | 0 mm | 0 m/s | 0 W/m² | - |
| 1778036224 | 17.78° C | 59% | 1010.4 hPa | 0 mm | 0 m/s | 0 W/m² | - |
| 1778035920 | 17.78° C | 60% | 1010.4 hPa | 0 mm | 0 m/s | 0 W/m² | - |
| 1778035617 | 17.22° C | 62% | 1010.2 hPa | 0 mm | 0 m/s | 0 W/m² | - |
| 1778035314 | 17.22° C | 64% | 1010.3 hPa | 0 mm | 0 m/s | 0 W/m² | - |
| 1778035010 | 17.78° C | 63% | 1010.1 hPa | 0 mm | 0 m/s | 0 W/m² | - |
| 1778034707 | 17.78° C | 62% | 1010.3 hPa | 0 mm | 0 m/s | 0 W/m² | - |
| 1778034404 | 18.33° C | 60% | 1010.4 hPa | 0 mm | 0 m/s | 0 W/m² | - |
| 1778034102 | 18.33° C | 58% | 1010.3 hPa | 0 mm | 0 m/s | 0 W/m² | - |
| 1778033800 | 18.89° C | 56% | 1010.3 hPa | 0 mm | 0 m/s | 0 W/m² | - |
| 1778033496 | 19.44° C | 53% | 1010.2 hPa | 0 mm | 0 m/s | 0 W/m² | - |
| 1778033193 | 19.44° C | 54% | 1010.3 hPa | 0 mm | 0.45 m/s, 315° | 0 W/m² | - |
| 1778032891 | 19.44° C | 54% | 1010.3 hPa | 0 mm | 0.45 m/s, 214° | 0 W/m² | - |
| 1778032589 | 19.44° C | 53% | 1010.4 hPa | 0 mm | 0 m/s | 0 W/m² | - |
| 1778032285 | 20° C | 52% | 1010.2 hPa | 0 mm | 0.89 m/s, 210° | 0 W/m² | - |
| 1778031983 | 19.44° C | 52% | 1010.3 hPa | 0 mm | 0.89 m/s, 197° | 0 W/m² | - |
| 1778031678 | 19.44° C | 52% | 1010.6 hPa | 0 mm | 0.45 m/s, 223° | 0 W/m² | - |
| 1778031377 | 20° C | 52% | 1010.2 hPa | 0 mm | 1.34 m/s, 205° | 0 W/m² | - |
* Rain latest hour (hover to see other rain measurements)
** Current wind speed in m/s (hover to see current wind gust speed)